Time,TemperatureF,DewpointF,PressureIn,WindDirection,WindDirectionDegrees,WindSpeedMPH,WindSpeedGustMPH,Humidity,HourlyPrecipIn,Conditions,Clouds,dailyrainin,SoftwareType,DateUTC
2013-01-15 00:09:00,25.4,23.0,30.27,NE,40,5.0,11.0,91,0.00,,,0.00,weatherlink.com 1.10,2013-01-15 06:09:00,
2013-01-15 00:24:00,25.5,23.0,30.26,NNE,19,6.0,11.0,91,0.00,,,0.00,weatherlink.com 1.10,2013-01-15 06:24:00,
2013-01-15 00:39:00,25.5,23.0,30.26,NNE,28,5.0,8.0,91,0.00,,,0.00,weatherlink.com 1.10,2013-01-15 06:39:00,
2013-01-15 00:54:00,25.5,23.0,30.26,NNE,15,5.0,11.0,91,0.00,,,0.00,weatherlink.com 1.10,2013-01-15 06:54:00,
2013-01-15 01:09:00,25.4,23.0,30.27,NNE,18,6.0,12.0,91,0.00,,,0.00,weatherlink.com 1.10,2013-01-15 07:09:00,
2013-01-15 01:24:00,25.2,23.0,30.27,NNE,15,5.0,12.0,91,0.00,,,0.00,weatherlink.com 1.10,2013-01-15 07:24:00,
2013-01-15 01:39:00,25.1,23.0,30.27,North,10,4.0,8.0,91,0.00,,,0.00,weatherlink.com 1.10,2013-01-15 07:39:00,
2013-01-15 01:54:00,24.9,23.0,30.28,NE,40,4.0,11.0,91,0.00,,,0.00,weatherlink.com 1.10,2013-01-15 07:54:00,
2013-01-15 02:09:00,24.6,22.0,30.27,NNE,32,4.0,7.0,91,0.00,,,0.00,weatherlink.com 1.10,2013-01-15 08:09:00,
2013-01-15 02:24:00,24.4,22.0,30.27,NNE,17,4.0,8.0,92,0.00,,,0.00,weatherlink.com 1.10,2013-01-15 08:24:00,
2013-01-15 02:39:00,24.3,22.0,30.27,NNE,24,3.0,7.0,92,0.00,,,0.00,weatherlink.com 1.10,2013-01-15 08:39:00,
2013-01-15 02:54:00,24.3,22.0,30.27,NNE,26,5.0,9.0,92,0.00,,,0.00,weatherlink.com 1.10,2013-01-15 08:54:00,
2013-01-15 03:09:00,24.1,22.0,30.27,NE,38,3.0,4.0,92,0.00,,,0.00,weatherlink.com 1.10,2013-01-15 09:09:00,
2013-01-15 03:24:00,24.0,22.0,30.26,NNE,33,1.0,5.0,92,0.00,,,0.00,weatherlink.com 1.10,2013-01-15 09:24:00,
2013-01-15 03:39:00,24.0,22.0,30.25,North,5,1.0,6.0,93,0.00,,,0.00,weatherlink.com 1.10,2013-01-15 09:39:00,
2013-01-15 03:54:00,24.1,22.0,30.24,NE,45,4.0,7.0,92,0.00,,,0.00,weatherlink.com 1.10,2013-01-15 09:54:00,
2013-01-15 04:09:00,24.2,22.0,30.24,NNE,31,5.0,8.0,92,0.00,,,0.00,weatherlink.com 1.10,2013-01-15 10:09:00,
2013-01-15 04:24:00,24.1,22.0,30.24,NE,49,4.0,8.0,92,0.00,,,0.00,weatherlink.com 1.10,2013-01-15 10:24:00,
2013-01-15 04:40:00,24.1,22.0,30.23,NE,46,3.0,9.0,92,0.00,,,0.00,weatherlink.com 1.10,2013-01-15 10:40:00,
2013-01-15 04:55:00,24.0,22.0,30.23,ENE,77,3.0,6.0,92,0.00,,,0.00,weatherlink.com 1.10,2013-01-15 10:55:00,
2013-01-15 05:10:00,24.2,22.0,30.23,NE,44,5.0,9.0,92,0.00,,,0.00,weatherlink.com 1.10,2013-01-15 11:10:00,
2013-01-15 05:25:00,24.4,22.0,30.23,ENE,57,7.0,11.0,92,0.00,,,0.00,weatherlink.com 1.10,2013-01-15 11:25:00,
2013-01-15 05:40:00,24.5,23.0,30.23,ENE,57,9.0,13.0,92,0.00,,,0.00,weatherlink.com 1.10,2013-01-15 11:40:00,
2013-01-15 05:55:00,24.6,23.0,30.23,NE,50,6.0,11.0,92,0.00,,,0.00,weatherlink.com 1.10,2013-01-15 11:55:00,
2013-01-15 06:10:00,24.7,23.0,30.23,ENE,58,9.0,10.0,92,0.00,,,0.00,weatherlink.com 1.10,2013-01-15 12:10:00,
2013-01-15 06:25:00,24.7,23.0,30.23,East,98,3.0,11.0,92,0.00,,,0.00,weatherlink.com 1.10,2013-01-15 12:25:00,
2013-01-15 06:40:00,24.7,23.0,30.23,East,83,6.0,8.0,92,0.00,,,0.00,weatherlink.com 1.10,2013-01-15 12:40:00,
2013-01-15 06:55:00,24.8,23.0,30.23,NNE,14,4.0,9.0,92,0.00,,,0.00,weatherlink.com 1.10,2013-01-15 12:55:00,
2013-01-15 07:10:00,24.7,23.0,30.23,NE,42,4.0,12.0,92,0.00,,,0.00,weatherlink.com 1.10,2013-01-15 13:10:00,
2013-01-15 07:25:00,24.8,23.0,30.24,NNE,15,6.0,12.0,92,0.00,,,0.00,weatherlink.com 1.10,2013-01-15 13:25:00,
2013-01-15 07:40:00,24.7,23.0,30.23,East,84,8.0,11.0,91,0.00,,,0.00,weatherlink.com 1.10,2013-01-15 13:40:00,
2013-01-15 07:55:00,24.8,23.0,30.24,North,5,4.0,11.0,92,0.00,,,0.00,weatherlink.com 1.10,2013-01-15 13:55:00,
2013-01-15 08:10:00,24.9,23.0,30.24,NE,37,5.0,11.0,92,0.00,,,0.00,weatherlink.com 1.10,2013-01-15 14:10:00,
2013-01-15 08:25:00,25.0,23.0,30.23,NE,49,7.0,13.0,91,0.00,,,0.00,weatherlink.com 1.10,2013-01-15 14:25:00,
2013-01-15 08:40:00,25.3,23.0,30.24,NE,52,5.0,13.0,91,0.00,,,0.00,weatherlink.com 1.10,2013-01-15 14:40:00,
2013-01-15 08:55:00,25.4,23.0,30.23,NNE,24,8.0,11.0,91,0.00,,,0.00,weatherlink.com 1.10,2013-01-15 14:55:00,
2013-01-15 09:10:00,25.4,23.0,30.24,ENE,59,4.0,10.0,91,0.00,,,0.00,weatherlink.com 1.10,2013-01-15 15:10:00,
2013-01-15 09:25:00,26.1,24.0,30.23,NE,50,6.0,10.0,90,0.00,,,0.00,weatherlink.com 1.10,2013-01-15 15:25:00,
2013-01-15 09:40:00,26.2,23.0,30.22,ENE,71,8.0,9.0,89,0.00,,,0.00,weatherlink.com 1.10,2013-01-15 15:40:00,
2013-01-15 09:55:00,26.5,24.0,30.22,NNE,24,4.0,8.0,89,0.00,,,0.00,weatherlink.com 1.10,2013-01-15 15:55:00,
2013-01-15 10:10:00,26.9,24.0,30.22,NE,36,4.0,10.0,89,0.00,,,0.00,weatherlink.com 1.10,2013-01-15 16:10:00,
2013-01-15 10:25:00,27.9,25.0,30.20,East,82,3.0,10.0,87,0.00,,,0.00,weatherlink.com 1.10,2013-01-15 16:25:00,
2013-01-15 10:40:00,29.2,25.0,30.16,NE,51,9.0,13.0,85,0.00,,,0.00,weatherlink.com 1.10,2013-01-15 16:40:00,
2013-01-15 10:55:00,28.5,25.0,30.16,ENE,77,4.0,11.0,85,0.00,,,0.00,weatherlink.com 1.10,2013-01-15 16:55:00,
2013-01-15 11:10:00,29.2,25.0,30.15,NNE,24,7.0,11.0,85,0.00,,,0.00,weatherlink.com 1.10,2013-01-15 17:10:00,
2013-01-15 11:26:00,29.7,25.0,30.15,NE,37,5.0,10.0,84,0.00,,,0.00,weatherlink.com 1.10,2013-01-15 17:26:00,
2013-01-15 11:41:00,29.6,25.0,30.12,ENE,61,3.0,9.0,84,0.00,,,0.00,weatherlink.com 1.10,2013-01-15 17:41:00,
2013-01-15 11:56:00,29.9,26.0,30.11,NNE,26,5.0,12.0,84,0.00,,,0.00,weatherlink.com 1.10,2013-01-15 17:56:00,
2013-01-15 12:11:00,29.9,26.0,30.13,North,355,6.0,11.0,84,0.00,,,0.00,weatherlink.com 1.10,2013-01-15 18:11:00,
2013-01-15 12:26:00,29.6,25.0,30.16,North,355,4.0,9.0,84,0.00,,,0.00,weatherlink.com 1.10,2013-01-15 18:26:00,
2013-01-15 12:41:00,29.6,25.0,30.15,North,5,11.0,12.0,84,0.00,,,0.00,weatherlink.com 1.10,2013-01-15 18:41:00,
2013-01-15 12:56:00,29.9,25.0,30.17,NNW,347,6.0,11.0,83,0.00,,,0.00,weatherlink.com 1.10,2013-01-15 18:56:00,
2013-01-15 13:11:00,29.9,26.0,30.13,North,11,6.0,12.0,84,0.00,,,0.00,weatherlink.com 1.10,2013-01-15 19:11:00,
2013-01-15 13:26:00,29.8,26.0,30.15,NNE,17,6.0,11.0,84,0.00,,,0.00,weatherlink.com 1.10,2013-01-15 19:26:00,
2013-01-15 13:41:00,29.8,26.0,30.12,NNE,13,5.0,11.0,84,0.00,,,0.00,weatherlink.com 1.10,2013-01-15 19:41:00,
2013-01-15 13:56:00,30.2,26.0,30.13,North,9,6.0,10.0,84,0.00,,,0.00,weatherlink.com 1.10,2013-01-15 19:56:00,
2013-01-15 14:11:00,30.2,26.0,30.12,NNE,23,3.0,12.0,84,0.00,,,0.00,weatherlink.com 1.10,2013-01-15 20:11:00,
2013-01-15 14:26:00,30.3,26.0,30.11,North,360,6.0,14.0,83,0.00,,,0.00,weatherlink.com 1.10,2013-01-15 20:26:00,
2013-01-15 14:41:00,30.6,27.0,30.11,NNE,17,2.0,9.0,85,0.00,,,0.00,weatherlink.com 1.10,2013-01-15 20:41:00,
2013-01-15 14:56:00,30.7,26.0,30.10,NE,38,5.0,10.0,84,0.00,,,0.00,weatherlink.com 1.10,2013-01-15 20:56:00,
2013-01-15 15:11:00,30.8,27.0,30.13,North,355,8.0,14.0,85,0.00,,,0.00,weatherlink.com 1.10,2013-01-15 21:11:00,
2013-01-15 15:26:00,30.8,27.0,30.12,NNE,21,10.0,12.0,84,0.00,,,0.00,weatherlink.com 1.10,2013-01-15 21:26:00,
2013-01-15 15:41:00,30.7,27.0,30.12,NE,40,7.0,13.0,85,0.00,,,0.00,weatherlink.com 1.10,2013-01-15 21:41:00,
2013-01-15 15:56:00,30.6,27.0,30.15,NNE,19,6.0,10.0,86,0.00,,,0.00,weatherlink.com 1.10,2013-01-15 21:56:00,
2013-01-15 16:11:00,30.5,27.0,30.11,NE,34,6.0,10.0,86,0.00,,,0.00,weatherlink.com 1.10,2013-01-15 22:11:00,
2013-01-15 16:26:00,30.4,27.0,30.12,NE,36,4.0,8.0,88,0.00,,,0.00,weatherlink.com 1.10,2013-01-15 22:26:00,
2013-01-15 16:41:00,30.6,28.0,30.15,ENE,74,4.0,6.0,89,0.00,,,0.00,weatherlink.com 1.10,2013-01-15 22:41:00,
2013-01-15 16:56:00,30.5,28.0,30.11,NNE,17,6.0,9.0,89,0.00,,,0.00,weatherlink.com 1.10,2013-01-15 22:56:00,
2013-01-15 17:11:00,30.5,28.0,30.10,NNE,24,4.0,8.0,90,0.00,,,0.00,weatherlink.com 1.10,2013-01-15 23:11:00,
2013-01-15 17:26:00,30.3,28.0,30.09,North,9,3.0,8.0,91,0.00,,,0.00,weatherlink.com 1.10,2013-01-15 23:26:00,
2013-01-15 17:41:00,30.3,28.0,30.09,ENE,57,2.0,9.0,91,0.00,,,0.00,weatherlink.com 1.10,2013-01-15 23:41:00,
2013-01-15 17:56:00,30.4,28.0,30.10,NE,44,3.0,10.0,91,0.00,,,0.00,weatherlink.com 1.10,2013-01-15 23:56:00,
2013-01-15 18:11:00,30.3,28.0,30.08,ENE,66,3.0,9.0,91,0.00,,,0.00,weatherlink.com 1.10,2013-01-16 00:11:00,
2013-01-15 18:26:00,30.2,28.0,30.09,NE,36,1.0,7.0,91,0.00,,,0.00,weatherlink.com 1.10,2013-01-16 00:26:00,
2013-01-15 18:41:00,30.2,28.0,30.09,NE,44,5.0,8.0,92,0.00,,,0.00,weatherlink.com 1.10,2013-01-16 00:41:00,
2013-01-15 18:56:00,30.2,28.0,30.06,NE,50,4.0,10.0,92,0.00,,,0.00,weatherlink.com 1.10,2013-01-16 00:56:00,
2013-01-15 19:11:00,30.3,28.0,30.07,ENE,72,4.0,7.0,92,0.00,,,0.00,weatherlink.com 1.10,2013-01-16 01:11:00,
2013-01-15 19:26:00,30.4,28.0,30.08,NNE,25,2.0,7.0,92,0.00,,,0.00,weatherlink.com 1.10,2013-01-16 01:26:00,
2013-01-15 19:41:00,30.4,28.0,30.06,NNE,15,2.0,9.0,92,0.00,,,0.00,weatherlink.com 1.10,2013-01-16 01:41:00,
2013-01-15 19:56:00,30.5,29.0,30.07,North,5,5.0,7.0,92,0.00,,,0.00,weatherlink.com 1.10,2013-01-16 01:56:00,
2013-01-15 20:11:00,30.5,29.0,30.08,North,9,2.0,6.0,93,0.00,,,0.00,weatherlink.com 1.10,2013-01-16 02:11:00,
2013-01-15 20:26:00,30.5,29.0,30.07,North,355,5.0,7.0,93,0.00,,,0.00,weatherlink.com 1.10,2013-01-16 02:26:00,
2013-01-15 20:41:00,30.4,29.0,30.09,NNW,346,5.0,9.0,94,0.00,,,0.00,weatherlink.com 1.10,2013-01-16 02:41:00,
2013-01-15 20:56:00,30.4,29.0,30.08,NNE,15,5.0,6.0,94,0.00,,,0.00,weatherlink.com 1.10,2013-01-16 02:56:00,
2013-01-15 21:11:00,30.3,29.0,30.08,NNW,334,6.0,9.0,94,0.00,,,0.00,weatherlink.com 1.10,2013-01-16 03:11:00,
2013-01-15 21:26:00,30.1,29.0,30.07,NE,40,4.0,10.0,94,0.00,,,0.00,weatherlink.com 1.10,2013-01-16 03:26:00,
2013-01-15 21:41:00,29.9,28.0,30.09,NNW,346,3.0,9.0,94,0.00,,,0.00,weatherlink.com 1.10,2013-01-16 03:41:00,
2013-01-15 21:56:00,29.9,29.0,30.07,NNW,346,5.0,7.0,95,0.00,,,0.00,weatherlink.com 1.10,2013-01-16 03:56:00,
2013-01-15 22:11:00,30.0,29.0,30.07,North,351,4.0,7.0,95,0.00,,,0.00,weatherlink.com 1.10,2013-01-16 04:11:00,
2013-01-15 22:26:00,30.0,29.0,30.06,NNE,19,3.0,11.0,95,0.00,,,0.00,weatherlink.com 1.10,2013-01-16 04:26:00,
2013-01-15 22:41:00,29.8,29.0,30.06,North,350,5.0,10.0,95,0.00,,,0.00,weatherlink.com 1.10,2013-01-16 04:41:00,
2013-01-15 22:56:00,29.7,29.0,30.05,NNE,16,1.0,8.0,95,0.00,,,0.00,weatherlink.com 1.10,2013-01-16 04:56:00,
2013-01-15 23:11:00,29.7,29.0,30.02,NNE,13,5.0,8.0,95,0.00,,,0.00,weatherlink.com 1.10,2013-01-16 05:11:00,
2013-01-15 23:26:00,29.7,29.0,30.03,North,360,3.0,9.0,95,0.00,,,0.00,weatherlink.com 1.10,2013-01-16 05:26:00,
2013-01-15 23:41:00,29.6,28.0,30.04,North,5,5.0,9.0,95,0.00,,,0.00,weatherlink.com 1.10,2013-01-16 05:41:00,
2013-01-15 23:56:00,29.5,28.0,30.05,NNW,342,5.0,8.0,95,0.00,,,0.00,weatherlink.com 1.10,2013-01-16 05:56:00,